TIROS 2 DEB *, 5922

Orbit data source: Space-Track

TIROS 2 DEB *, 5922 is space debris in LEO originally from a launch on Wed, 23 Nov 1960 UTC launched from the Air Force Eastern Test Range (AFETR). Debris objects in space refer to the collection of defunct objects orbiting the Earth. Examples of debris include non-operational satellites, rocket bodies, and fragments generated from explosions, collisions, or faulty payload assembly.

Loading next visibility...
Identifier
5922, 1960-016E
Orbit
LEO
Country
Flag of USUS
Related business
Manufacturer
Unknown
Mission
Spacecraft
Bus & Motor
Unknown
Mass
Unknown
Launch date (UTC)
1960-11-23 (65 years ago)
Launch vehicle
Unknown
Launch site
Air Force Eastern Test Range (AFETR)
Object type
Payload
Rocket body
Debris
Shape & HBR
Unknown shape, 0.1 m
Radar Cross Section
Small (<0.1 m²)

Expand to show TLE details & history
Last TLE update: 6 hours ago

TLE from 6 hours ago
0 TIROS 2 DEB *
1  5922U 60016E   26068.39432061 -.00000049  00000-0  90356-4 0  9992
2  5922  47.0304 200.8763 0040511 325.2062  71.9899 13.70054700737765
Epoch: 2026-03-09T09:27Z
TLE epoch observation values (Epoch: 2026-03-09T09:27:49.300Z)
Latitude
26.62452°
Longitude
-80.48611°
Altitude
990.795 km
Speed
7.364 km/s
True Right ascension
15h 14m 13s
True Declination
26° 29' 29"
Sunlit
Object was in partial shadow at epoch
Visualization orbit readout
Latitude
Unknown
Longitude
Unknown
Altitude
Unknown
Speed
Unknown
Apparent Right ascension
Unknown
Apparent Declination
Unknown
Sunlit
N/A
Visualization observer readout
Local Sidereal Time
20:04:13
Azimuth
Unknown
Elevation
Unknown
Doppler factor
Unknown
Orbital elements
Apogee altitude
1,030.447 km
Perigee altitude
970.663 km
Semi-major axis
7,378.692 km
Eccentricity
0.00405
Inclination
47.0304°
RAAN
200.8763°
Arg. of periapsis
325.2062°
True anomaly
72.43206°
Mean anomaly
71.9899°
Eccentric anomaly
72.21091°
Mean motion
3.42432 °/min
Orbital period
105.13 mins
BSTAR
0.000090356
Loading maneuver chart data...
Computing Atmospheric mass density...
Loading historical data...
Loading historical data...
Loading historical data...
Loading historical data...
Loading historical data...
Loading historical data...
Loading historical data...
Other satellites on launch #16 in the year 1960 (1960-11-23 UTC)

Documentation

Showing up to 5 results
|